EW3857 Weather Reports


Display with metric or nautical units.
time (UTC)temp
F
wind
direction
speed
MPH
gust
MPH
rain 1hr
in
rain 24hr
in
rain mn
in
humidity
%
barometer
mb
20260507010315 66 288 0.0 0.0 0.00 0.30 0.30 99 1014.8
20260507005813 66 288 0.0 0.0 0.00 0.30 0.30 99 1014.9
20260507005309 66 288 0.0 0.0 0.00 0.30 0.30 99 1014.7
20260507004801 66 291 0.0 0.0 0.00 0.30 0.30 99 1014.5
20260507004258 66 271 0.0 0.0 0.00 0.30 0.30 99 1014.8
20260507003754 66 283 0.0 0.0 0.00 0.30 0.30 99 1015.0
20260507003249 66 282 0.0 0.0 0.00 0.30 0.30 99 1015.0
20260507002745 66 278 0.0 0.0 0.00 0.30 0.30 99 1015.2
20260507002242 66 279 0.0 0.0 0.00 0.30 0.30 98 1015.0
20260507001739 66 281 1.0 1.0 0.00 0.30 0.30 98 1015.0
20260507001236 66 280 0.0 0.0 0.00 0.30 0.30 98 1015.0
20260507000733 66 271 0.0 0.0 0.00 0.30 0.30 98 1015.0
20260507000228 66 273 0.0 0.0 0.00 0.30 0.30 98 1015.1
20260506235725 66 343 1.0 1.0 0.00 0.30 0.30 98 1015.2
20260506235220 66 296 0.0 0.0 0.00 0.30 0.30 98 1015.1
20260506234718 66 284 0.0 0.0 0.00 0.30 0.30 98 1014.9
20260506234215 66 353 1.0 2.0 0.00 0.30 0.30 98 1014.7
20260506233713 66 10 1.0 2.0 0.00 0.30 0.30 98 1014.6
20260506233209 66 277 0.0 0.0 0.00 0.30 0.30 98 1014.6
20260506232707 66 292 0.0 0.0 0.00 0.30 0.30 98 1014.8
20260506232200 66 299 0.0 0.0 0.00 0.30 0.30 98 1014.9
20260506231658 66 15 2.0 2.0 0.00 0.30 0.30 98 1014.2
20260506231157 66 337 3.0 3.0 0.00 0.30 0.30 98 1014.4
20260506230653 66 301 1.0 1.0 0.00 0.30 0.30 98 1014.8
20260506230149 66 302 0.0 1.0 0.00 0.30 0.30 98 1014.7
20260506225646 66 346 3.0 3.0 0.07 0.30 0.30 98 1014.5
20260506225143 66 317 1.0 2.0 0.07 0.30 0.30 98 1014.4
20260506224639 66 358 3.0 3.0 0.12 0.30 0.30 97 1014.6
20260506224136 66 34 1.0 2.0 0.40 0.29 0.29 97 1014.7
20260506223632 66 50 2.0 2.0 0.42 0.28 0.28 97 1014.4
20260506223128 66 274 0.0 0.0 0.12 0.23 0.23 97 1014.6
20260506222626 66 352 2.0 2.0 0.05 0.21 0.21 97 1013.8
20260506222122 66 40 4.0 6.0 0.47 0.21 0.21 97 1013.9
20260506221620 66 60 1.0 2.0 0.61 0.20 0.20 97 1013.6
20260506221118 66 260 0.0 0.0 0.47 0.14 0.14 96 1013.9
20260506220614 66 336 3.0 3.0 0.50 0.11 0.11 96 1014.1
20260506220109 66 285 1.0 2.0 0.35 0.06 0.06 95 1014.2
20260506215606 66 347 5.0 6.0 0.17 0.03 0.03 94 1014.2
20260506215101 67 19 2.0 2.0 0.00 0.00 0.00 93 1014.0
20260506214559 67 354 5.0 6.0 0.00 0.00 0.00 92 1013.9
20260506214056 67 339 2.0 2.0 0.00 0.00 0.00 92 1013.8
20260506213554 67 357 3.0 3.0 0.00 0.00 0.00 92 1013.8
20260506213051 67 357 3.0 3.0 0.00 0.00 0.00 92 1013.3
20260506212548 67 25 2.0 2.0 0.00 0.00 0.00 92 1013.2
20260506212042 67 300 1.0 2.0 0.00 0.00 0.00 91 1013.7
20260506211539 68 3 5.0 7.0 0.00 0.00 0.00 90 1013.6
20260506211036 68 339 3.0 5.0 0.00 0.00 0.00 90 1013.6
20260506210532 68 358 6.0 7.0 0.00 0.00 0.00 89 1013.4
20260506210029 68 42 1.0 1.0 0.00 0.00 0.00 90 1013.7
20260506205526 68 343 1.0 1.0 0.00 0.00 0.00 90 1013.5
20260506205021 68 42 2.0 2.0 0.00 0.00 0.00 90 1013.2
20260506204520 68 36 2.0 2.0 0.00 0.00 0.00 90 1013.0
20260506204016 68 332 3.0 3.0 0.00 0.00 0.00 90 1013.2
20260506203515 68 359 5.0 6.0 0.00 0.00 0.00 90 1013.4
20260506203010 68 320 3.0 3.0 0.00 0.00 0.00 91 1013.9
20260506202508 68 22 2.0 2.0 0.00 0.00 0.00 90 1013.6
20260506202004 68 50 4.0 6.0 0.00 0.00 0.00 90 1014.1
20260506201502 69 42 3.0 3.0 0.00 0.00 0.00 90 1014.1
20260506200958 69 1 3.0 3.0 0.00 0.00 0.00 89 1014.3
20260506200455 70 10 5.0 5.0 0.00 0.00 0.00 88 1014.6
20260506195951 70 287 1.0 1.0 0.00 0.00 0.00 87 1014.8
20260506195448 71 306 1.0 1.0 0.00 0.00 0.00 87 1014.4
20260506194945 70 349 3.0 3.0 0.00 0.00 0.00 88 1014.3
20260506194442 70 18 3.0 5.0 0.00 0.00 0.00 89 1014.3
20260506193939 71 13 2.0 3.0 0.00 0.00 0.00 88 1014.4
20260506193436 71 17 0.0 1.0 0.00 0.00 0.00 87 1014.5
20260506192932 71 317 0.0 1.0 0.00 0.00 0.00 87 1014.7
20260506192429 71 357 6.0 7.0 0.00 0.00 0.00 86 1014.6
20260506191926 72 336 2.0 2.0 0.00 0.00 0.00 86 1014.8
20260506191422 72 248 1.0 1.0 0.00 0.00 0.00 86 1015.0
20260506190919 73 320 3.0 5.0 0.00 0.00 0.00 84 1014.9
20260506190416 76 333 2.0 2.0 0.00 0.00 0.00 84 1014.8
20260506185913 77 313 1.0 1.0 0.00 0.00 0.00 81 1014.6
20260506185410 78 283 0.0 0.0 0.00 0.00 0.00 80 1014.9
20260506184907 77 266 0.0 0.0 0.00 0.00 0.00 81 1014.8
20260506184404 77 261 0.0 0.0 0.00 0.00 0.00 81 1014.7
20260506183901 77 228 2.0 2.0 0.00 0.00 0.00 81 1014.8
20260506183356 77 269 0.0 0.0 0.00 0.00 0.00 81 1015.2
20260506182854 77 220 2.0 2.0 0.00 0.00 0.00 81 1015.2
20260506182351 77 274 0.0 1.0 0.00 0.00 0.00 81 1015.3
20260506181848 77 229 2.0 3.0 0.00 0.00 0.00 82 1015.1
20260506181346 76 218 3.0 5.0 0.00 0.00 0.00 81 1014.8
20260506180843 75 238 1.0 1.0 0.00 0.00 0.00 84 1014.9
20260506180339 75 266 2.0 2.0 0.00 0.00 0.00 84 1015.1
20260506175835 75 208 2.0 2.0 0.00 0.00 0.00 84 1015.1
20260506175332 75 257 0.0 0.0 0.00 0.00 0.00 84 1015.1
20260506174830 75 221 3.0 3.0 0.00 0.00 0.00 84 1015.3
20260506174327 75 244 2.0 2.0 0.00 0.00 0.00 83 1015.3
20260506173824 75 241 0.0 0.0 0.00 0.00 0.00 84 1015.1
20260506173321 75 239 2.0 2.0 0.00 0.00 0.00 84 1015.5
20260506172818 74 236 2.0 2.0 0.00 0.00 0.00 84 1015.6
20260506172315 74 249 0.0 1.0 0.00 0.00 0.00 84 1015.6
20260506171812 74 254 1.0 1.0 0.00 0.00 0.00 84 1015.5
20260506171309 73 255 1.0 1.0 0.00 0.00 0.00 85 1015.7
20260506170807 73 264 0.0 1.0 0.00 0.00 0.00 84 1015.8
20260506170303 73 252 1.0 2.0 0.00 0.00 0.00 84 1015.7
20260506165802 73 216 0.0 1.0 0.00 0.00 0.00 85 1015.4
20260506165259 73 232 2.0 2.0 0.00 0.00 0.00 84 1015.5
20260506164755 73 234 2.0 2.0 0.00 0.00 0.00 85 1015.5
20260506164252 73 231 2.0 3.0 0.00 0.00 0.00 85 1015.3
20260506163749 73 224 3.0 3.0 0.00 0.00 0.00 84 1015.1
20260506163244 74 261 0.0 0.0 0.00 0.00 0.00 84 1015.3
20260506162740 74 230 2.0 2.0 0.00 0.00 0.00 83 1015.4
20260506162238 74 222 2.0 2.0 0.00 0.00 0.00 83 1015.0
20260506161730 74 254 2.0 2.0 0.00 0.00 0.00 83 1015.1
20260506161227 74 271 0.0 0.0 0.00 0.00 0.00 83 1015.1
20260506160724 73 223 1.0 2.0 0.00 0.00 0.00 84 1015.2
20260506160221 73 254 0.0 1.0 0.00 0.00 0.00 84 1015.5
20260506155719 73 268 0.0 0.0 0.00 0.00 0.00 84 1015.5
20260506155216 72 246 1.0 2.0 0.00 0.00 0.00 84 1015.3
20260506153318 72 220 3.0 7.0 0.00 0.00 0.00 85 1015.3
20260506152815 72 203 1.0 2.0 0.00 0.00 0.00 85 1015.7
20260506152312 72 208 4.0 6.0 0.00 0.00 0.00 85 1015.6
20260506151811 72 163 3.0 5.0 0.00 0.00 0.00 85 1015.6
20260506151307 72 200 5.0 7.0 0.00 0.00 0.00 86 1015.3
20260506150804 71 214 4.0 6.0 0.00 0.00 0.00 86 1015.3
20260506150304 71 220 3.0 5.0 0.00 0.00 0.00 87 1015.5
20260506145758 71 260 2.0 3.0 0.00 0.00 0.00 87 1015.7
20260506145254 72 214 1.0 3.0 0.00 0.00 0.00 87 1015.5
20260506144752 71 219 5.0 7.0 0.00 0.00 0.00 89 1015.5
20260506144248 70 208 3.0 3.0 0.00 0.00 0.00 91 1015.5
20260506143746 69 199 2.0 2.0 0.00 0.00 0.00 91 1015.6
20260506143243 69 160 5.0 7.0 0.00 0.00 0.00 91 1015.3
20260506142742 68 204 4.0 7.0 0.00 0.00 0.00 94 1015.3
20260506142239 67 238 3.0 5.0 0.00 0.00 0.00 95 1015.3
20260506141738 67 218 2.0 2.0 0.00 0.00 0.00 95 1015.5
20260506141235 67 248 5.0 7.0 0.00 0.00 0.00 95 1015.6
20260506140732 67 247 4.0 6.0 0.00 0.00 0.00 95 1016.2
20260506140229 67 207 2.0 2.0 0.00 0.00 0.00 94 1016.0
20260506135726 67 241 2.0 2.0 0.00 0.00 0.00 94 1016.6
20260506135222 67 202 2.0 3.0 0.00 0.00 0.00 94 1016.3
20260506134719 67 234 5.0 7.0 0.00 0.00 0.00 93 1015.9
20260506134215 67 235 4.0 5.0 0.00 0.00 0.00 93 1016.4
20260506133713 67 203 3.0 5.0 0.00 0.00 0.00 92 1016.2
20260506133209 68 267 0.0 0.0 0.00 0.00 0.00 92 1016.2
20260506132707 68 228 3.0 3.0 0.00 0.00 0.00 91 1015.7
20260506132203 68 218 3.0 5.0 0.00 0.00 0.00 90 1015.6
20260506131701 68 236 3.0 5.0 0.00 0.00 0.00 89 1016.0
20260506131157 68 244 4.0 6.0 0.00 0.00 0.00 88 1016.0
20260506130654 68 191 3.0 5.0 0.00 0.00 0.00 88 1016.1
20260506130151 68 267 2.0 2.0 0.00 0.00 0.00 88 1016.0
20260506125649 68 199 4.0 5.0 0.00 0.00 0.00 88 1016.0
20260506125147 68 235 0.0 1.0 0.00 0.00 0.00 88 1015.7
20260506124645 68 192 3.0 3.0 0.00 0.00 0.00 88 1015.6
20260506124142 68 219 4.0 6.0 0.00 0.00 0.00 87 1015.5
20260506123639 68 211 5.0 9.0 0.00 0.00 0.00 87 1015.4
20260506123138 68 214 4.0 5.0 0.00 0.00 0.00 87 1015.1
20260506122635 68 222 5.0 6.0 0.00 0.00 0.00 86 1015.3
20260506122132 68 199 3.0 5.0 0.00 0.00 0.00 86 1015.2
20260506121630 68 209 4.0 5.0 0.00 0.00 0.00 86 1015.2
20260506121126 68 215 4.0 5.0 0.00 0.00 0.00 86 1014.8
20260506120624 69 172 4.0 5.0 0.00 0.00 0.00 86 1014.9
20260506120121 69 201 3.0 3.0 0.00 0.00 0.00 86 1014.9
20260506115620 69 267 1.0 2.0 0.00 0.00 0.00 85 1014.4
20260506115117 69 228 0.0 1.0 0.00 0.00 0.00 85 1014.6
20260506114614 68 223 1.0 2.0 0.00 0.00 0.00 85 1014.4
20260506114112 68 213 3.0 6.0 0.00 0.00 0.00 85 1014.4
20260506113610 68 217 4.0 5.0 0.00 0.00 0.00 85 1014.1
20260506113107 68 220 2.0 3.0 0.00 0.00 0.00 85 1014.1
20260506112604 68 274 3.0 7.0 0.00 0.00 0.00 85 1014.1
20260506112102 68 249 2.0 3.0 0.00 0.00 0.00 84 1014.1
20260506111559 68 241 4.0 6.0 0.00 0.00 0.00 84 1013.9
20260506111056 68 22 3.0 5.0 0.00 0.00 0.00 84 1013.7
20260506110554 68 215 3.0 3.0 0.00 0.00 0.00 84 1013.8
20260506110051 68 186 4.0 5.0 0.00 0.00 0.00 84 1013.8
20260506105547 69 241 3.0 5.0 0.00 0.00 0.00 83 1013.7
20260506105044 69 174 4.0 5.0 0.00 0.00 0.00 83 1014.0
20260506104542 69 182 3.0 3.0 0.00 0.00 0.00 83 1013.8
20260506104040 69 204 3.0 3.0 0.00 0.00 0.00 83 1013.9
20260506103537 69 233 3.0 3.0 0.00 0.00 0.00 82 1013.8
20260506103033 69 207 3.0 3.0 0.00 0.00 0.00 82 1013.7
20260506102532 69 232 1.0 2.0 0.00 0.00 0.00 82 1013.7
20260506102029 69 237 3.0 3.0 0.00 0.00 0.00 82 1013.8
20260506101525 69 311 2.0 2.0 0.00 0.00 0.00 82 1013.7
20260506101022 69 227 6.0 7.0 0.00 0.00 0.00 82 1013.2
20260506100521 69 226 3.0 6.0 0.00 0.00 0.00 81 1013.2
20260506100019 69 188 3.0 5.0 0.00 0.00 0.00 81 1013.2
20260506095517 69 214 3.0 3.0 0.00 0.00 0.00 81 1013.0
20260506095013 69 241 5.0 7.0 0.00 0.00 0.00 80 1013.1
20260506094511 69 178 6.0 8.0 0.00 0.00 0.00 80 1013.0
20260506094009 69 228 2.0 3.0 0.00 0.00 0.00 80 1013.2
20260506093507 69 219 2.0 3.0 0.00 0.00 0.00 79 1013.3
20260506093004 69 203 3.0 5.0 0.00 0.00 0.00 79 1013.1
20260506092502 69 207 6.0 8.0 0.00 0.00 0.00 78 1013.0
20260506091958 69 216 3.0 3.0 0.00 0.00 0.00 78 1013.1
20260506091457 70 211 4.0 6.0 0.00 0.00 0.00 78 1013.4
20260506090953 70 224 3.0 3.0 0.00 0.00 0.00 78 1013.3
20260506090451 70 211 3.0 5.0 0.00 0.00 0.00 77 1013.2
20260506085947 70 235 2.0 3.0 0.00 0.00 0.00 77 1013.3
20260506085444 70 228 2.0 2.0 0.00 0.00 0.00 77 1013.3
20260506084941 70 199 4.0 5.0 0.00 0.00 0.00 76 1012.9
20260506084437 70 216 3.0 5.0 0.00 0.00 0.00 76 1013.1
20260506083933 70 215 5.0 7.0 0.00 0.00 0.00 76 1013.1
20260506083431 70 233 1.0 1.0 0.00 0.00 0.00 76 1013.3
20260506082928 70 219 5.0 6.0 0.00 0.00 0.00 76 1012.9
20260506082425 70 232 4.0 5.0 0.00 0.00 0.00 76 1012.9
20260506081921 70 211 4.0 6.0 0.00 0.00 0.00 76 1013.1
20260506081420 70 234 1.0 2.0 0.00 0.00 0.00 76 1012.9
20260506080916 70 203 3.0 3.0 0.00 0.00 0.00 75 1012.9
20260506080413 70 240 3.0 3.0 0.00 0.00 0.00 75 1013.0
20260506073357 70 213 4.0 6.0 0.00 0.00 0.00 75 1013.0
20260506072854 70 223 4.0 6.0 0.00 0.00 0.00 75 1013.2
20260506072351 70 208 2.0 5.0 0.00 0.00 0.00 76 1013.0
20260506071849 70 174 3.0 6.0 0.00 0.00 0.00 75 1012.8
20260506071347 70 210 5.0 6.0 0.00 0.00 0.00 75 1012.8
20260506070843 70 113 5.0 6.0 0.00 0.00 0.00 75 1012.6
20260506070341 70 211 3.0 5.0 0.00 0.00 0.00 76 1012.6
20260506062318 70 226 4.0 6.0 0.00 0.00 0.00 74 1013.1
20260506061814 70 236 3.0 3.0 0.00 0.00 0.00 75 1013.2
20260506061310 70 211 3.0 5.0 0.00 0.00 0.00 74 1013.1
20260506060809 70 184 2.0 3.0 0.00 0.00 0.00 74 1013.4
20260506060307 70 228 2.0 3.0 0.00 0.00 0.00 74 1013.3
20260506051238 70 209 3.0 3.0 0.00 0.00 0.00 72 1014.0
20260506050736 69 206 1.0 1.0 0.00 0.00 0.00 72 1014.1
20260506050233 69 251 1.0 1.0 0.00 0.00 0.00 72 1014.0
20260506044724 69 249 1.0 2.0 0.00 0.00 0.00 72 1014.0
20260506044221 69 237 1.0 1.0 0.00 0.00 0.00 71 1013.7
20260506043718 69 250 1.0 1.0 0.00 0.00 0.00 71 1014.0
20260506043216 69 248 0.0 1.0 0.00 0.00 0.00 71 1014.0
20260506042714 69 252 0.0 1.0 0.00 0.00 0.00 71 1014.1
20260506042213 70 250 0.0 1.0 0.00 0.00 0.00 70 1014.1
20260506041711 70 224 2.0 2.0 0.00 0.00 0.00 70 1014.1
20260506041208 70 258 0.0 0.0 0.00 0.00 0.00 70 1014.1
20260506040705 70 251 1.0 1.0 0.00 0.00 0.00 70 1014.1
20260506040201 70 261 0.0 0.0 0.00 0.00 0.00 69 1014.2
20260506035652 70 251 0.0 1.0 0.00 0.00 0.00 69 1014.0
20260506035149 70 252 0.0 1.0 0.00 0.00 0.00 69 1014.2
20260506034645 70 259 0.0 0.0 0.00 0.00 0.00 70 1014.1
20260506034143 70 251 1.0 1.0 0.00 0.00 0.00 69 1014.0
20260506033640 70 254 0.0 0.0 0.00 0.00 0.00 69 1014.1
20260506033137 70 249 1.0 1.0 0.00 0.00 0.00 69 1013.9
20260506032634 70 264 0.0 0.0 0.00 0.00 0.00 69 1014.0
20260506032131 70 225 1.0 1.0 0.00 0.00 0.00 69 1014.0
20260506031628 70 255 0.0 0.0 0.00 0.00 0.00 68 1013.8
20260506031125 70 264 0.0 0.0 0.00 0.00 0.00 69 1014.1
20260506030623 70 261 1.0 1.0 0.00 0.00 0.00 69 1014.0
20260506030120 70 233 0.0 1.0 0.00 0.00 0.00 69 1014.0
20260506025617 70 256 0.0 0.0 0.00 0.00 0.00 69 1013.8
20260506025113 70 245 1.0 1.0 0.00 0.00 0.00 69 1013.7
20260506024611 70 249 0.0 1.0 0.00 0.00 0.00 69 1013.8
20260506024107 70 262 0.0 0.0 0.00 0.00 0.00 69 1013.8
20260506023602 71 241 1.0 1.0 0.00 0.00 0.00 69 1013.8
20260506023100 71 248 1.0 1.0 0.00 0.00 0.00 69 1013.4
20260506022558 71 233 1.0 2.0 0.00 0.00 0.00 69 1013.5
20260506022055 71 233 1.0 1.0 0.00 0.00 0.00 69 1013.6
20260506021552 71 223 2.0 2.0 0.00 0.00 0.00 68 1013.6
20260506021049 71 239 2.0 2.0 0.00 0.00 0.00 68 1013.6
20260506020547 71 214 2.0 3.0 0.00 0.00 0.00 68 1013.7
20260506020044 71 248 1.0 1.0 0.00 0.00 0.00 67 1013.8
20260506015542 71 228 3.0 3.0 0.00 0.00 0.00 67 1013.9
20260506015039 71 232 1.0 1.0 0.00 0.00 0.00 67 1014.0
20260506014536 71 245 1.0 2.0 0.00 0.00 0.00 67 1014.0
20260506014031 71 241 2.0 2.0 0.00 0.00 0.00 67 1013.6
20260506013531 71 256 2.0 3.0 0.00 0.00 0.00 66 1013.7
20260506013027 71 194 3.0 5.0 0.00 0.00 0.00 67 1013.7
20260506012523 71 241 1.0 1.0 0.00 0.00 0.00 68 1013.5
20260506012020 71 175 3.0 3.0 0.00 0.00 0.00 66 1013.7
20260506011518 71 218 3.0 5.0 0.00 0.00 0.00 66 1013.7
20260506011014 72 161 3.0 3.0 0.00 0.00 0.00 66 1013.5
20260506010513 72 243 3.0 5.0 0.00 0.00 0.00 67 1013.4